Tracking 30105 objects as of 24-Jan-2025
HD Live streaming from Space Station
objects crossing your sky now

FENGYUN 1C DEB

Track FENGYUN 1C DEB now!
10-day predictions


NORAD ID: 30358
Int'l Code: 1999-025ABV
Perigee: 778.1 km
Apogee: 901.8 km
Inclination: 98.6 °
Period: 101.6 minutes
Semi major axis: 7210 km
RCS: 0.037 m2 (small)
Launch date: May 10, 1999
Source: People's Republic of China (PRC)
Launch site: Taiyaun Space Center, China (TSC)

Note: This is SATELLITE DEBRIS
Your satellite tracking list
Your tracking list is empty




NASA's NSSDC Master Catalog

Two Line Element Set (TLE):
1 30358U 99025ABV 25023.54618340  .00005435  00000-0  25878-2 0  9996
2 30358  98.5691 223.3318 0085796  52.7582   7.1030 14.17794414923417
Source of the keplerian elements: AFSPC